| time (UTC) | temp F | wind direction | speed MPH | gust MPH | rain 1hr in | rain 24hr in | rain mn in | humidity % | barometer mb |
| 20260502193930 | 93 | 179 | 5.0 | 13.0 | 0.00 | 0.00 | 0.00 | 36 | 1009.5 |
| 20260502193446 | 93 | 233 | 5.0 | 14.0 | 0.00 | 0.00 | 0.00 | 37 | 1009.5 |
| 20260502192942 | 93 | 218 | 5.0 | 14.0 | 0.00 | 0.00 | 0.00 | 37 | 1009.6 |
| 20260502192458 | 93 | 286 | 5.0 | 11.0 | 0.00 | 0.00 | 0.00 | 39 | 1009.6 |
| 20260502192010 | 92 | 198 | 3.0 | 13.0 | 0.00 | 0.00 | 0.00 | 39 | 1009.6 |
| 20260502191444 | 92 | 236 | 8.0 | 13.0 | 0.00 | 0.00 | 0.00 | 38 | 1009.6 |
| 20260502190937 | 92 | 244 | 4.0 | 13.0 | 0.00 | 0.00 | 0.00 | 42 | 1009.6 |
| 20260502190451 | 91 | 247 | 5.0 | 15.0 | 0.00 | 0.00 | 0.00 | 40 | 1009.6 |
| 20260502185938 | 91 | 224 | 7.0 | 14.0 | 0.00 | 0.00 | 0.00 | 40 | 1009.6 |
| 20260502185436 | 91 | 191 | 5.0 | 15.0 | 0.00 | 0.00 | 0.00 | 41 | 1009.6 |
| 20260502184939 | 91 | 255 | 3.0 | 18.0 | 0.00 | 0.00 | 0.00 | 43 | 1009.6 |
| 20260502184435 | 91 | 219 | 8.0 | 18.0 | 0.00 | 0.00 | 0.00 | 41 | 1009.6 |
| 20260502183940 | 91 | 252 | 8.0 | 15.0 | 0.00 | 0.00 | 0.00 | 41 | 1009.6 |
| 20260502183436 | 91 | 266 | 3.0 | 13.0 | 0.00 | 0.00 | 0.00 | 42 | 1009.6 |
| 20260502182440 | 91 | 215 | 6.0 | 13.0 | 0.00 | 0.00 | 0.00 | 43 | 1009.6 |
| 20260502181956 | 91 | 314 | 8.0 | 16.0 | 0.00 | 0.00 | 0.00 | 43 | 1009.6 |
| 20260502181443 | 91 | 190 | 6.0 | 16.0 | 0.00 | 0.00 | 0.00 | 42 | 1009.7 |
| 20260502180938 | 91 | 243 | 8.0 | 14.0 | 0.00 | 0.00 | 0.00 | 43 | 1009.7 |
| 20260502180435 | 91 | 244 | 6.0 | 16.0 | 0.00 | 0.00 | 0.00 | 44 | 1009.7 |
| 20260502170440 | 91 | 241 | 6.0 | 11.0 | 0.00 | 0.00 | 0.00 | 45 | 1010.1 |
| 20260502163938 | 90 | 231 | 5.0 | 15.0 | 0.00 | 0.00 | 0.00 | 47 | 1010.5 |
| 20260502163507 | 90 | 262 | 5.0 | 15.0 | 0.00 | 0.00 | 0.00 | 48 | 1010.5 |
| 20260502162939 | 90 | 175 | 5.0 | 15.0 | 0.00 | 0.00 | 0.00 | 47 | 1010.7 |
| 20260502162437 | 90 | 172 | 4.0 | 17.0 | 0.00 | 0.00 | 0.00 | 49 | 1010.7 |
| 20260502161932 | 89 | 274 | 6.0 | 12.0 | 0.00 | 0.00 | 0.00 | 51 | 1010.7 |
| 20260502161444 | 89 | 300 | 5.0 | 14.0 | 0.00 | 0.00 | 0.00 | 49 | 1010.7 |
| 20260502160941 | 89 | 181 | 7.0 | 16.0 | 0.00 | 0.00 | 0.00 | 49 | 1010.7 |
| 20260502160458 | 89 | 229 | 4.0 | 16.0 | 0.00 | 0.00 | 0.00 | 50 | 1010.7 |
| 20260502152011 | 86 | 166 | 3.0 | 9.0 | 0.00 | 0.00 | 0.00 | 60 | 1010.9 |
| 20260502151458 | 85 | 162 | 4.0 | 11.0 | 0.00 | 0.00 | 0.00 | 60 | 1010.9 |
| 20260502150934 | 85 | 207 | 6.0 | 11.0 | 0.00 | 0.00 | 0.00 | 60 | 1010.9 |
| 20260502150438 | 85 | 198 | 5.0 | 11.0 | 0.00 | 0.00 | 0.00 | 61 | 1010.9 |
| 20260502130439 | 75 | 194 | 3.0 | 7.0 | 0.00 | 0.00 | 0.00 | 78 | 1010.6 |
| 20260502123501 | 72 | 213 | 4.0 | 9.0 | 0.00 | 0.00 | 0.00 | 88 | 1010.7 |
| 20260502122956 | 72 | 195 | 4.0 | 7.0 | 0.00 | 0.00 | 0.00 | 90 | 1010.6 |
| 20260502122432 | 71 | 216 | 3.0 | 7.0 | 0.00 | 0.00 | 0.00 | 91 | 1010.6 |
| 20260502121945 | 71 | 189 | 2.0 | 5.0 | 0.00 | 0.00 | 0.00 | 93 | 1010.6 |
| 20260502121441 | 71 | 162 | 2.0 | 5.0 | 0.00 | 0.00 | 0.00 | 95 | 1010.6 |
| 20260502120938 | 70 | 214 | 2.0 | 5.0 | 0.00 | 0.00 | 0.00 | 96 | 1010.6 |
| 20260502120445 | 70 | 238 | 1.0 | 5.0 | 0.00 | 0.00 | 0.00 | 97 | 1010.6 |
| 20260501224935 | 83 | 142 | 2.0 | 9.0 | 0.00 | 0.00 | 0.00 | 61 | 1008.7 |
| 20260501224440 | 83 | 152 | 2.0 | 9.0 | 0.00 | 0.00 | 0.00 | 62 | 1008.8 |
| 20260501223955 | 83 | 127 | 2.0 | 7.0 | 0.00 | 0.00 | 0.00 | 62 | 1008.8 |
| 20260501223441 | 83 | 188 | 2.0 | 7.0 | 0.00 | 0.00 | 0.00 | 62 | 1008.8 |
| 20260501222934 | 83 | 87 | 1.0 | 4.0 | 0.00 | 0.00 | 0.00 | 61 | 1008.7 |
| 20260501222444 | 84 | 105 | 2.0 | 5.0 | 0.00 | 0.00 | 0.00 | 61 | 1008.7 |
| 20260501221940 | 84 | 136 | 2.0 | 5.0 | 0.00 | 0.00 | 0.00 | 60 | 1008.7 |
| 20260501221455 | 84 | 155 | 2.0 | 5.0 | 0.00 | 0.00 | 0.00 | 60 | 1008.7 |
| 20260501220943 | 84 | 108 | 1.0 | 10.0 | 0.00 | 0.00 | 0.00 | 58 | 1008.7 |
| 20260501220459 | 85 | 122 | 4.0 | 10.0 | 0.00 | 0.00 | 0.00 | 57 | 1008.7 |
| 20260501215943 | 85 | 100 | 1.0 | 9.0 | 0.00 | 0.00 | 0.00 | 57 | 1008.6 |
| 20260501215440 | 86 | 114 | 4.0 | 9.0 | 0.00 | 0.00 | 0.00 | 56 | 1008.6 |
| 20260501214935 | 86 | 25 | 3.0 | 9.0 | 0.00 | 0.00 | 0.00 | 56 | 1008.6 |
| 20260501214431 | 86 | 46 | 1.0 | 9.0 | 0.00 | 0.00 | 0.00 | 55 | 1008.7 |
| 20260501214004 | 86 | 147 | 2.0 | 9.0 | 0.00 | 0.00 | 0.00 | 55 | 1008.7 |
| 20260501213457 | 87 | 134 | 2.0 | 8.0 | 0.00 | 0.00 | 0.00 | 54 | 1008.7 |
| 20260501212932 | 87 | 144 | 3.0 | 7.0 | 0.00 | 0.00 | 0.00 | 54 | 1008.9 |
| 20260501212441 | 88 | 185 | 3.0 | 9.0 | 0.00 | 0.00 | 0.00 | 51 | 1008.9 |
| 20260501211937 | 88 | 130 | 3.0 | 9.0 | 0.00 | 0.00 | 0.00 | 53 | 1008.9 |
| 20260501211433 | 89 | 99 | 3.0 | 7.0 | 0.00 | 0.00 | 0.00 | 50 | 1009.0 |
| 20260501210931 | 90 | 145 | 2.0 | 9.0 | 0.00 | 0.00 | 0.00 | 50 | 1009.0 |
| 20260501210440 | 90 | 67 | 2.0 | 9.0 | 0.00 | 0.00 | 0.00 | 50 | 1009.0 |
| 20260501205935 | 90 | 147 | 2.0 | 6.0 | 0.00 | 0.00 | 0.00 | 48 | 1009.1 |
| 20260501205439 | 90 | 121 | 1.0 | 6.0 | 0.00 | 0.00 | 0.00 | 48 | 1009.1 |
| 20260501204936 | 90 | 68 | 1.0 | 7.0 | 0.00 | 0.00 | 0.00 | 49 | 1009.1 |
| 20260501204444 | 90 | 72 | 2.0 | 7.0 | 0.00 | 0.00 | 0.00 | 49 | 1009.3 |
| 20260501203941 | 90 | 58 | 3.0 | 7.0 | 0.00 | 0.00 | 0.00 | 48 | 1009.3 |
| 20260501203437 | 90 | 263 | 3.0 | 7.0 | 0.00 | 0.00 | 0.00 | 48 | 1009.3 |
| 20260501202935 | 90 | 97 | 1.0 | 6.0 | 0.00 | 0.00 | 0.00 | 49 | 1009.6 |
| 20260501202443 | 90 | 65 | 2.0 | 11.0 | 0.00 | 0.00 | 0.00 | 50 | 1009.6 |
| 20260501201939 | 90 | 114 | 1.0 | 11.0 | 0.00 | 0.00 | 0.00 | 50 | 1009.6 |
| 20260501201437 | 90 | 106 | 1.0 | 11.0 | 0.00 | 0.00 | 0.00 | 50 | 1009.9 |
| 20260501200932 | 90 | 129 | 2.0 | 7.0 | 0.00 | 0.00 | 0.00 | 51 | 1009.9 |
| 20260501200445 | 90 | 75 | 2.0 | 10.0 | 0.00 | 0.00 | 0.00 | 48 | 1009.9 |
| 20260501195938 | 89 | 84 | 2.0 | 10.0 | 0.00 | 0.00 | 0.00 | 51 | 1010.1 |
| 20260501195435 | 90 | 105 | 3.0 | 9.0 | 0.00 | 0.00 | 0.00 | 50 | 1010.1 |
| 20260501194932 | 89 | 127 | 2.0 | 9.0 | 0.00 | 0.00 | 0.00 | 48 | 1010.1 |
| 20260501194429 | 89 | 73 | 2.0 | 9.0 | 0.00 | 0.00 | 0.00 | 50 | 1010.2 |